Previsão horária em Allaire

Hoje, 19 Junho, Sábado

Tempo Temperatura Precipitação Vento Pressão Humidade
00:00 +15°C° 0 mm 2 m/s 757 mmHg 86%
01:00 +14°C° 0 mm 2 m/s 757 mmHg 89%
02:00 +14°C° 0 mm 2 m/s 756 mmHg 91%
03:00 +13°C° 0 mm 2 m/s 756 mmHg 93%
04:00 +13°C° 0 mm 3 m/s 756 mmHg 92%
05:00 +13°C° 0 mm 3 m/s 756 mmHg 91%
06:00 +14°C° 0 mm 3 m/s 756 mmHg 88%
07:00 +16°C° 0 mm 3 m/s 756 mmHg 84%
08:00 +18°C° 0 mm 3 m/s 756 mmHg 79%
09:00 +20°C° 0 mm 3 m/s 755 mmHg 75%
10:00 +20°C° 0.2 mm 3 m/s 755 mmHg 72%
11:00 +21°C° 0.2 mm 3 m/s 754 mmHg 69%
12:00 +22°C° 0.2 mm 3 m/s 754 mmHg 66%
13:00 +24°C° 0.2 mm 3 m/s 753 mmHg 65%
14:00 +23°C° 0.2 mm 4 m/s 753 mmHg 63%
15:00 +23°C° 0.2 mm 5 m/s 752 mmHg 61%
16:00 +22°C° 0.4 mm 5 m/s 752 mmHg 66%
17:00 +21°C° 0.4 mm 5 m/s 752 mmHg 71%
18:00 +20°C° 0.4 mm 6 m/s 752 mmHg 76%
19:00 +19°C° 0 mm 5 m/s 752 mmHg 81%
20:00 +16°C° 0 mm 5 m/s 752 mmHg 86%
21:00 +15°C° 0 mm 5 m/s 752 mmHg 91%
22:00 +15°C° 0 mm 4 m/s 753 mmHg 90%
23:00 +14°C° 0 mm 3 m/s 753 mmHg 89%

Amanhã, 20 Junho, Domingo

Tempo Temperatura Precipitação Vento Pressão Humidade
00:00 +14°C° 0 mm 3 m/s 753 mmHg 88%
01:00 +14°C° 0 mm 3 m/s 752 mmHg 88%
02:00 +13°C° 0 mm 3 m/s 752 mmHg 89%
03:00 +14°C° 0 mm 2 m/s 752 mmHg 90%
04:00 +14°C° 0 mm 2 m/s 752 mmHg 88%
05:00 +15°C° 0 mm 2 m/s 751 mmHg 86%
06:00 +16°C° 0 mm 2 m/s 751 mmHg 84%
07:00 +17°C° 0 mm 2 m/s 751 mmHg 79%
08:00 +18°C° 0 mm 2 m/s 751 mmHg 74%
09:00 +19°C° 0 mm 2 m/s 751 mmHg 69%
10:00 +20°C° 0 mm 2 m/s 751 mmHg 66%
11:00 +21°C° 0 mm 2 m/s 750 mmHg 62%
12:00 +23°C° 0 mm 2 m/s 750 mmHg 59%
13:00 +21°C° 0.7 mm 2 m/s 749 mmHg 66%
14:00 +21°C° 0.7 mm 2 m/s 749 mmHg 73%
15:00 +20°C° 0.7 mm 2 m/s 748 mmHg 80%
16:00 +20°C° 0.6 mm 2 m/s 748 mmHg 80%
17:00 +20°C° 0.6 mm 2 m/s 748 mmHg 81%
18:00 +19°C° 0.6 mm 3 m/s 748 mmHg 82%
19:00 +18°C° 0.1 mm 2 m/s 749 mmHg 86%
20:00 +17°C° 0.1 mm 2 m/s 749 mmHg 90%
21:00 +15°C° 0.1 mm 2 m/s 749 mmHg 94%
22:00 +15°C° 0 mm 2 m/s 749 mmHg 95%
23:00 +14°C° 0 mm 3 m/s 749 mmHg 95%

Depois de amanhã, 21 Junho, Segunda-feira

Tempo Temperatura Precipitação Vento Pressão Humidade
00:00 +14°C° 0 mm 3 m/s 749 mmHg 95%
01:00 +14°C° 0 mm 3 m/s 749 mmHg 95%
02:00 +13°C° 0 mm 3 m/s 749 mmHg 94%
03:00 +13°C° 0 mm 3 m/s 749 mmHg 94%
04:00 +15°C° 0 mm 2 m/s 750 mmHg 92%
05:00 +16°C° 0 mm 2 m/s 750 mmHg 90%
06:00 +16°C° 0 mm 1 m/s 750 mmHg 88%
07:00 +17°C° 0.2 mm 2 m/s 750 mmHg 83%
08:00 +19°C° 0.2 mm 3 m/s 750 mmHg 78%
09:00 +20°C° 0.2 mm 3 m/s 751 mmHg 73%
10:00 +20°C° 0.5 mm 4 m/s 751 mmHg 72%
11:00 +20°C° 0.5 mm 4 m/s 751 mmHg 71%
12:00 +20°C° 0.5 mm 4 m/s 751 mmHg 70%
13:00 +21°C° 0.3 mm 4 m/s 751 mmHg 67%
14:00 +21°C° 0.3 mm 4 m/s 751 mmHg 64%
15:00 +21°C° 0.3 mm 4 m/s 751 mmHg 62%
16:00 +21°C° 0 mm 4 m/s 751 mmHg 63%
17:00 +20°C° 0 mm 3 m/s 752 mmHg 64%
18:00 +20°C° 0 mm 3 m/s 752 mmHg 66%
19:00 +19°C° 0 mm 2 m/s 752 mmHg 73%
20:00 +17°C° 0 mm 2 m/s 752 mmHg 79%
21:00 +16°C° 0 mm 1 m/s 753 mmHg 86%
22:00 +15°C° 0.1 mm 1 m/s 753 mmHg 88%
23:00 +15°C° 0.1 mm 1 m/s 753 mmHg 89%

22 Junho, Terça-feira

Tempo Temperatura Precipitação Vento Pressão Humidade
00:00 +15°C° 0.1 mm 1 m/s 753 mmHg 91%
01:00 +15°C° 0.3 mm 2 m/s 753 mmHg 93%
02:00 +14°C° 0.3 mm 2 m/s 753 mmHg 94%
03:00 +13°C° 0.3 mm 3 m/s 753 mmHg 96%
04:00 +14°C° 0.7 mm 3 m/s 753 mmHg 96%
05:00 +14°C° 0.7 mm 4 m/s 754 mmHg 95%
06:00 +14°C° 0.7 mm 5 m/s 754 mmHg 94%
07:00 +15°C° 0.2 mm 5 m/s 754 mmHg 92%
08:00 +15°C° 0.2 mm 5 m/s 755 mmHg 90%
09:00 +15°C° 0.2 mm 6 m/s 755 mmHg 88%
10:00 +16°C° 0 mm 6 m/s 756 mmHg 83%
11:00 +17°C° 0 mm 6 m/s 756 mmHg 78%
12:00 +17°C° 0 mm 7 m/s 756 mmHg 73%
13:00 +17°C° 0 mm 7 m/s 757 mmHg 72%
14:00 +17°C° 0 mm 8 m/s 757 mmHg 72%
15:00 +17°C° 0 mm 8 m/s 757 mmHg 71%
16:00 +16°C° 0 mm 8 m/s 758 mmHg 72%
17:00 +16°C° 0 mm 8 m/s 758 mmHg 72%
18:00 +16°C° 0 mm 8 m/s 758 mmHg 73%
19:00 +15°C° 0 mm 8 m/s 759 mmHg 75%
20:00 +14°C° 0 mm 7 m/s 759 mmHg 77%
21:00 +12°C° 0 mm 7 m/s 760 mmHg 79%
22:00 +12°C° 0 mm 7 m/s 760 mmHg 80%
23:00 +11°C° 0 mm 6 m/s 760 mmHg 80%

23 Junho, Quarta-feira

Tempo Temperatura Precipitação Vento Pressão Humidade
00:00 +11°C° 0 mm 6 m/s 760 mmHg 81%
01:00 +11°C° 0 mm 6 m/s 760 mmHg 81%
02:00 +11°C° 0 mm 6 m/s 760 mmHg 81%
03:00 +11°C° 0 mm 6 m/s 760 mmHg 81%
04:00 +11°C° 0 mm 6 m/s 760 mmHg 79%
05:00 +11°C° 0 mm 6 m/s 760 mmHg 78%
06:00 +13°C° 0 mm 6 m/s 761 mmHg 77%
07:00 +14°C° 0 mm 6 m/s 761 mmHg 71%
08:00 +15°C° 0 mm 7 m/s 761 mmHg 65%
09:00 +16°C° 0 mm 7 m/s 761 mmHg 58%
10:00 +17°C° 0 mm 6 m/s 761 mmHg 55%
11:00 +19°C° 0 mm 6 m/s 761 mmHg 53%
12:00 +20°C° 0 mm 6 m/s 761 mmHg 50%
13:00 +20°C° 0 mm 6 m/s 761 mmHg 48%
14:00 +20°C° 0 mm 6 m/s 761 mmHg 46%
15:00 +21°C° 0 mm 6 m/s 761 mmHg 45%
16:00 +20°C° 0 mm 6 m/s 761 mmHg 47%
17:00 +19°C° 0 mm 6 m/s 761 mmHg 49%
18:00 +17°C° 0 mm 6 m/s 761 mmHg 51%
19:00 +15°C° 0 mm 6 m/s 762 mmHg 59%
20:00 +14°C° 0 mm 5 m/s 762 mmHg 66%
21:00 +12°C° 0 mm 5 m/s 763 mmHg 73%
22:00 +11°C° 0 mm 4 m/s 763 mmHg 80%
23:00 +10°C° 0 mm 4 m/s 763 mmHg 86%

24 Junho, Quinta-feira

Tempo Temperatura Precipitação Vento Pressão Humidade
00:00 +9°C° 0 mm 3 m/s 763 mmHg 92%
01:00 +8°C° 0 mm 3 m/s 763 mmHg 92%
02:00 +8°C° 0 mm 3 m/s 763 mmHg 92%
03:00 +8°C° 0 mm 2 m/s 763 mmHg 92%
04:00 +9°C° 0 mm 2 m/s 763 mmHg 88%
05:00 +10°C° 0 mm 2 m/s 764 mmHg 84%
06:00 +12°C° 0 mm 2 m/s 764 mmHg 80%
07:00 +14°C° 0 mm 2 m/s 764 mmHg 72%
08:00 +17°C° 0 mm 2 m/s 764 mmHg 63%
09:00 +19°C° 0 mm 2 m/s 764 mmHg 54%
10:00 +20°C° 0 mm 3 m/s 764 mmHg 51%
11:00 +21°C° 0 mm 3 m/s 764 mmHg 48%
12:00 +22°C° 0 mm 3 m/s 764 mmHg 45%
13:00 +21°C° 0 mm 3 m/s 764 mmHg 48%
14:00 +21°C° 0 mm 4 m/s 764 mmHg 52%
15:00 +21°C° 0 mm 4 m/s 764 mmHg 56%
16:00 +20°C° 0 mm 4 m/s 764 mmHg 59%
17:00 +20°C° 0 mm 3 m/s 764 mmHg 62%
18:00 +20°C° 0 mm 3 m/s 764 mmHg 65%
19:00 +18°C° 0 mm 3 m/s 764 mmHg 72%
20:00 +17°C° 0 mm 3 m/s 765 mmHg 79%
21:00 +14°C° 0 mm 3 m/s 765 mmHg 85%
22:00 +14°C° 0 mm 2 m/s 765 mmHg 86%
23:00 +13°C° 0 mm 2 m/s 765 mmHg 87%
Mostrar mais